Location: Unspecified
(41.1711°N, 0.0000°E)
Time: 10:26:37
(UTC+00:00)

UNISAT 6 - Visible Passes

Search period start: 04 April 2026 00:00
Search period end: 14 April 2026 00:00
Orbit: 574 x 636 km, 97.8° (Epoch: 28 March)

Date Brightness Start Highest point End Pass type
(mag) Time Alt. Az. Time Alt. Az. Time Alt. Az.
4 Apr ? 02:31:51 28° NE 02:31:51 28° NE 02:35:01 10° N visible
4 Apr ? 04:08:40 19° WNW 04:08:40 19° WNW 04:10:34 10° NW visible
5 Apr ? 02:44:18 37° NE 02:44:18 37° NE 02:47:47 10° N visible
5 Apr ? 04:21:08 15° WNW 04:21:08 15° WNW 04:22:38 10° NW visible
6 Apr ? 02:56:45 51° NE 02:56:45 51° NE 03:00:29 10° N visible
6 Apr ? 04:33:35 12° WNW 04:33:35 12° WNW 04:34:20 10° WNW visible
7 Apr ? 03:09:12 68° NNE 03:09:12 68° NNE 03:13:06 10° N visible
8 Apr ? 01:45:34 10° ENE 01:46:11 10° ENE 01:46:48 10° NE visible
8 Apr ? 03:21:38 72° NW 03:21:38 72° NW 03:25:38 10° NNW visible
9 Apr ? 01:57:15 12° E 01:58:32 14° ENE 02:00:46 10° NNE visible
9 Apr ? 03:34:04 55° W 03:34:04 55° W 03:38:06 10° NNW visible
10 Apr ? 02:09:40 17° E 02:10:54 19° ENE 02:13:54 10° NNE visible
10 Apr ? 03:46:30 40° W 03:46:30 40° W 03:50:29 10° NNW visible
11 Apr ? 02:22:06 22° E 02:23:18 24° ENE 02:26:49 10° NNE visible
11 Apr ? 03:58:55 29° W 03:58:57 29° W 04:02:47 10° NW visible
12 Apr ? 02:34:31 28° ESE 02:35:42 33° ENE 02:39:36 10° N visible
12 Apr ? 04:11:20 22° W 04:11:33 22° W 04:14:55 10° NW visible
13 Apr ? 02:46:56 35° ESE 02:48:08 44° ENE 02:52:17 10° N visible
13 Apr ? 04:23:45 16° W 04:24:10 16° W 04:26:52 10° NW visible
